Regional Weather Roundup
Issued by NWS

Home | Current Version | Previous Version | Text Only | Print | Product List | Glossary On
Versions: 1 2 3 4 5 6 7 8 9 10 11 12 13 14 15 16 17 18 19 20 21 22 23 24 25 26 27 28 29 30 31 32 33 34 35 36 37 38 39 40 41 42 43 44 45 46 47 48 49 50
000
ASUS42 KFFC 031603
RWRGA
WEATHER ROUNDUP FOR GEORGIA
NATIONAL WEATHER SERVICE PEACHTREE CITY GA
1200 PM EDT MON AUG 03 2015

NOTE: "FAIR" INDICATES FEW OR NO CLOUDS BELOW 12,000 FEET WITH NO
SIGNIFICANT WEATHER AND/OR OBSTRUCTIONS TO VISIBILITY.

* = USE WITH CAUTION. THE STATIONS MARKED WITH AN ASTERISK MAY NOT
REPORT WEATHER SUCH AS PRECIPITATION, FOG, OR THUNDER AND ARE NOT
QUALITY CONTROLLED BY NWS.

THE REMARK "TC" DENOTES TEMPERATURE READING IN DEGREES CELSIUS.

GAZ001>058-031700-
NORTH GEORGIA

CITY           SKY/WX    TMP DP  RH WIND       PRES   REMARKS
ATLANTA        MOSUNNY   86  70  58 CALM      29.97S HX  90
ATHENS         PTSUNNY   88  70  55 CALM      29.96F HX  93
CHAMBLEE       SUNNY     88  69  53 CALM      29.97S HX  92
PEACHTREE CITY SUNNY     86  72  62 VRB3      29.96F HX  92
ROME           SUNNY     86  64  47 VRB3      29.95F
WEST ATLANTA   SUNNY     85  70  60 W3        29.96F
GAINESVILLE    SUNNY     86  69  56 VRB5      30.00F HX  90
CARTERSVILLE   SUNNY     86  68  54 VRB5      29.97F


CITY           SKY/WX    TMP DP  RH WIND       PRES   REMARKS
DALTON*        SUNNY     84  63  48 N5        29.97S
LAWRENCEVILLE* MOSUNNY   88  64  45 CALM      29.96F
MARIETTA       MOSUNNY   87  69  54 S6        29.97S HX  90
KENNESAW*      MOSUNNY   84  66  54 CALM      29.99S
BLAIRSVILLE*     N/A     83  26  12 NE3       30.03S
$$

GAZ059>098-102>109-031700-
CENTRAL GEORGIA

CITY           SKY/WX    TMP DP  RH WIND       PRES   REMARKS
AUGUSTA-BUSH   CLOUDY    86  72  62 VRB5      29.93F HX  92
AUGUSTA-DANIEL CLOUDY    83  72  69 CALM      29.95F
COLUMBUS       MOSUNNY   87  73  62 SE5       29.92F HX  94
MACON          PTSUNNY   85  71  63 N7        29.93F HX  90
ROBINS AFB     PTSUNNY   85  73  67 NE7       29.92F HX  91


CITY           SKY/WX    TMP DP  RH WIND       PRES   REMARKS
LAGRANGE*      MOSUNNY   90  78  67 W3        29.95F HX 104
SYLVANIA*      SUNNY     86  78  76 CALM      29.92F HX  97
MILLEDGEVILLE* SUNNY     82  70  65 CALM      29.94F
$$

GAZ099>101-110>166-031700-
SOUTH GEORGIA

CITY           SKY/WX    TMP DP  RH WIND       PRES   REMARKS
SAVANNAH       PTSUNNY   83  74  74 SE14      29.92S
VALDOSTA       CLOUDY    81  75  82 VRB3      29.91R
ALMA           CLOUDY    80  74  81 VRB3      29.90S
ST SIMONS      CLOUDY    83  73  72 S12G18    29.90S
FT STEWART     PTSUNNY   82  77  83 SE3       29.88S HX  91
ALBANY         PTSUNNY   87  74  64 N9        29.93S HX  95
HUNTER AFB     PTSUNNY   80  79  96 S12       29.90F
MOODY AFB      PTSUNNY   81  73  78 N5        29.90R
BRUNSWICK      CLOUDY    82  73  74 SE10G16   29.90F


CITY           SKY/WX    TMP DP  RH WIND       PRES   REMARKS
BAINBRIDGE*    MOSUNNY   88  77  70 NW3       29.92S HX 100
MOULTRIE*      PTSUNNY   82  73  74 N6        29.92S
VIDALIA*       CLOUDY    82  73  74 E3        29.92F
WAYCROSS*      DRIZZLE   79  78  96 CALM      29.91S
DOUGLAS*       CLOUDY    81  75  83 NE8       29.92S
$$



USA.gov is the U.S. government's official web portal to all federal, state and local government web resources and services.